CAPE
675 659 802 887 966 1102 1337 1571 1569 1608 1791 1014 967 584 455 1050 841 612 497 881 1107 968 1355 686 1081 753 557 712 1403 1472 621 818 827 963 888 807 890 365 340 413 627 827 1142
799 895 906 905 1042 1169 1338 1685 1728 1403 2006 1529 1214 959 767 994 946 467 618 878 1107 1296 1508 1062 1002 1429 1273 1493 1719 1742 1079 1060 1117 554 520 694 607 727 658 371 488 680 956
701 799 952 1019 1073 1238 1478 1658 1862 1758 1384 1414 1098 782 727 1006 943 543 713 747 793 966 1320 1435 1292 1653 1477 993 1476 1212 1285 1031 1047 1153 878 787 611 769 776 966 1058 741 874
761 679 745 966 1033 1174 1359 1683 2002 2025 1236 1420 844 582 788 807 690 498 234 520 657 883 1300 1588 1620 1896 1104 1236 917 1165 1291 1392 647 895 631 637 757 620 726 862 879 815 885
962 596 639 825 1053 1004 1348 1688 2079 2265 1980 1951 1259 804 459 595 735 807 571 884 988 1265 1632 1698 1849 1835 937 1523 1145 1070 1365 1333 923 850 730 678 573 673 372 382 920 838 788
971 663 672 903 1110 1172 1280 1525 2114 2292 2179 2030 1405 1045 553 924 817 729 677 671 569 439 1258 1577 1797 1757 1481 1349 1128 1302 1329 1450 1391 1213 696 424 820 811 804 572 713 768 835
915 757 811 1052 1304 1468 1300 1432 2019 2234 2191 2121 1588 1202 1103 842 974 790 881 321 266 307 1114 1694 1752 1564 1534 953 1234 1469 1285 1300 1120 1306 957 663 809 1095 816 906 842 981 1043
992 835 950 1260 1356 1481 1494 1497 1537 2083 2088 2099 1938 1678 1225 1056 838 892 635 570 499 716 858 1473 1207 1556 1514 1277 1572 1355 1148 1247 1269 1413 1475 909 853 1064 910 839 935 885 826
973 853 1124 1307 1415 1491 1518 1650 1441 1899 2097 2015 2140 1942 1635 1262 1102 641 800 821 860 749 1276 1620 1553 1358 1665 1632 1599 1244 1180 1489 1385 1387 1584 1467 1304 1422 1400 1139 955 980 596
883 939 923 973 1476 1633 1586 1630 1597 1889 2048 1944 2128 2013 1790 1702 1394 1167 568 632 801 1058 1196 1612 1551 1802 1663 1275 1620 1412 1304 1687 1255 1142 1538 1733 1444 1027 1077 1059 1186 1029 873
1027 833 867 1213 1636 1509 1440 1403 1708 1669 1864 1862 1923 1922 1629 1452 1480 1293 1057 642 1112 1168 1213 1351 1371 1320 1301 1466 1151 1213 1417 1652 1404 1232 1524 1163 1519 1236 1495 1299 1298 1008 930
1071 926 938 990 1235 1544 1331 1128 1162 990 1402 1621 1920 2028 2021 1782 1545 1407 1189 769 907 1401 1508 1401 1181 1565 1341 1405 1197 1244 1183 1577 1396 1304 1369 1451 1228 1790 1374 1672 1315 1262 1100
1544 1365 1239 1269 1367 1252 1697 1753 1707 1409 1358 1792 1931 1963 2000 1881 1647 1502 1406 1233 1260 1613 1629 1632 1572 1652 1787 1635 1792 1799 1527 1637 1377 1102 1189 1191 1131 1166 1129 1358 1495 1112 1346
1879 1818 1700 1784 1730 1675 1813 2047 1976 1728 1892 1855 1918 2002 2070 1965 1755 1574 1567 1558 1570 1709 1749 1763 1828 1773 1597 1664 1648 1532 1714 1753 1219 1159 1313 1611 1643 1517 1337 1413 1561 1432 1437
913 892 1735 2014 2154 2149 2133 2215 2241 2200 2189 2351 2356 2248 2313 2194 1870 1573 1604 1817 1795 1719 1859 1919 1949 1953 1843 1503 1467 1581 1405 1568 1833 1904 1985 2022 2026 1844 1789 1507 1439 1245 1331
758 850 1151 1749 2254 2252 2492 2521 2498 2559 2611 2598 2672 2680 2639 2513 2370 2257 2265 2234 2117 1906 1881 1946 1912 1842 1587 1130 952 1114 1783 1920 2104 2054 1987 2061 2082 1948 1512 1124 998 1108 1470
692 881 918 1280 2139 2405 2326 2593 2686 2743 2890 2935 2877 2873 2891 2762 2696 2589 2499 2471 2320 2200 2198 2206 2111 1982 1984 1858 1452 1132 1435 1862 1959 2158 2060 1947 1465 1398 1529 1495 1007 469 561
589 788 902 948 1064 1808 2268 2621 2771 2920 2981 3061 3076 3061 3053 2903 2810 2755 2653 2564 2484 2433 2385 2348 2332 2426 2622 947 844 728 1408 1957 2094 2066 1835 1837 1855 1865 1884 1805 1576 1470 1331
298 493 507 653 845 1221 1913 2496 2820 3071 3141 2945 3194 3261 3148 3019 2877 2659 2627 2614 2639 2701 2746 2813 2927 3003 2445 295 126 230 1256 1346 1384 1324 1193 1139 1070 977 312 657 914 1003 1094
35 266 524 581 725 946 1079 1940 2701 2914 3090 3204 3199 3380 3335 3191 2911 2842 2710 2833 2882 2817 2819 3040 3089 2811 1471 19 0 0 15 3 0 0 0 0 0 0 0 0 6 39 82
0 10 161 490 680 766 1082 1364 2190 2589 2941 3064 3287 3412 3427 3416 3294 3282 3074 3042 3074 2783 3100 3049 2146 1525 960 0 0 0 0 0 0 0 0 0 0 0 0 0 0 1 2
0 0 2 333 575 602 1034 1121 1314 1917 2753 3104 3096 3325 3322 3252 3213 3423 3382 3253 3123 3019 2416 1822 870 169 0 0 0 0 0 0 0 0 0 0 0 0 0 0 0 0 0
0 0 0 2 373 649 1112 1269 1480 1603 1530 2004 3129 3213 3295 3145 2887 3100 3166 2935 2683 2071 1484 906 397 28 0 0 0 0 0 0 0 0 0 0 0 0 0 0 0 0 2
0 0 0 0 4 247 694 1042 1235 1453 1805 2015 2602 3189 3189 3220 3131 2981 2984 2128 1614 1319 784 417 140 0 0 0 0 0 0 0 0 0 0 0 0 0 0 1 13 20 13
0 0 0 0 0 5 152 638 887 1238 1463 1930 2528 2165 1539 1468 1068 967 1566 1289 1110 590 251 34 3 0 0 0 0 0 0 0 0 0 0 0 2 4 4 3 4 10 38
0 0 0 0 0 0 45 157 642 1069 1278 1479 2059 1879 1240 564 230 148 13 0 0 0 0 0 0 0 0 0 0 0 0 0 0 0 0 0 1 3 4 3 3 2 2
CIN
-1 -2 -5 -6 -5 -2 -2 -7 -6 -11 -1 -14 -3 -27 -37 -2 -1 -1 -1 -0 -0 -3 -10 -0 -5 -19 -19 -7 -5 -0 -37 -7 -2 -3 -4 -10 -2 -2 -3 -5 -1 -2 -0
-2 -0 -3 -11 -16 -14 -18 -11 -15 -12 -11 -1 -2 -1 -6 -5 -1 -1 -0 -1 -1 -0 -3 -9 -1 -2 -0 -3 -0 -0 -1 -1 -0 -17 -15 -1 -1 -2 -1 -4 -3 -1 -1
-3 -1 -9 -11 -15 -18 -34 -30 -25 -12 -11 -1 -17 -16 -8 -1 -3 -1 -1 -4 -13 -10 -12 -10 -5 -2 -4 -1 -1 -0 -1 -0 -1 -6 -2 -3 -2 -3 -2 -1 -0 -1 -1
-20 -1 -4 -11 -16 -25 -33 -43 -45 -17 -34 -11 -16 -34 -6 -1 -1 -3 -1 -3 -10 -11 -8 -9 -5 -3 -1 -2 -1 -1 -2 -5 -16 -1 -7 -11 -6 -2 -0 -2 -1 -1 -6
-23 -14 -3 -3 -10 -47 -41 -47 -58 -30 -18 -28 -12 -15 -18 -11 -6 -2 -0 -3 -2 -4 -0 -3 -2 -0 -8 -0 -8 -5 -0 -1 -3 -1 -1 -4 -2 -4 -1 -1 -3 -1 -2
-37 -21 -14 -2 -29 -71 -98 -65 -53 -51 -37 -25 -19 -17 -29 -1 -1 -1 -8 -1 -17 -19 -3 -5 -4 -1 -2 -1 -1 -1 -1 -1 -2 -5 -32 -19 -3 -4 -0 -1 -3 -0 -4
-75 -44 -20 -29 -55 -59 -93 -63 -61 -36 -30 -30 -17 -28 -13 -6 -9 -1 -2 -7 -30 -25 -1 -3 -3 -2 -3 -11 -2 -1 -5 -5 -15 -3 -2 -1 -1 -2 -0 -1 -1 -1 -1
-99 -81 -51 -52 -68 -74 -73 -80 -132 -74 -31 -31 -25 -17 -3 -11 -5 -3 -2 -3 -3 -2 -1 -0 -3 -2 -8 -5 -0 -7 -1 -5 -1 -1 -2 -1 -1 -2 -1 -1 -2 -7 -1
-138 -102 -79 -68 -102 -95 -85 -95 -114 -64 -41 -36 -16 -23 -18 -7 -2 -7 -8 -2 -0 -0 -1 -3 -7 -6 -6 -9 -9 -15 -13 -0 -1 -0 -0 -1 -3 -10 -2 -1 -1 -1 -2
-158 -122 -99 -79 -80 -75 -91 -118 -95 -47 -45 -38 -22 -22 -19 -6 -1 -2 -38 -9 -1 -1 -2 -1 -1 -1 -3 -12 -5 -2 -5 -0 -2 -2 -1 -1 -7 -29 -26 -11 -0 -1 -1
-119 -135 -123 -98 -75 -53 -113 -119 -109 -73 -45 -50 -43 -25 -12 -8 -2 -1 -4 -23 -2 -6 -11 -5 -3 -2 -4 -8 -16 -6 -9 -9 -4 -7 -1 -1 -2 -7 -7 -4 -1 -1 -1
-103 -143 -121 -106 -96 -82 -116 -156 -142 -156 -82 -53 -30 -23 -12 -0 -1 -1 -0 -26 -12 -1 -0 -4 -3 -0 -6 -9 -13 -9 -0 -1 -0 -1 -0 -2 -4 -2 -10 -4 -5 -13 -7
-89 -111 -124 -114 -100 -96 -84 -97 -116 -96 -79 -56 -41 -19 -12 -10 -7 -1 -1 -0 -1 -0 -1 -2 -5 -1 -0 -1 -2 -6 -7 -1 -1 -5 -2 -2 -2 -2 -1 -1 -1 -1 -2
-63 -62 -91 -95 -99 -85 -89 -92 -98 -100 -95 -75 -51 -35 -25 -15 -12 -3 -3 -2 -2 -0 -0 -0 -1 -2 -7 -2 -2 -2 -3 -4 -11 -15 -14 -4 -2 -3 -1 -1 -1 -8 -2
-116 -112 -53 -76 -94 -97 -83 -76 -73 -82 -65 -52 -48 -48 -40 -29 -23 -12 -6 -1 -1 -0 -1 -0 -0 -0 -2 -3 -12 -19 -23 -17 -13 -8 -4 -1 -1 -4 -7 -4 -1 -2 -2
-171 -169 -128 -94 -79 -87 -93 -100 -88 -76 -71 -64 -50 -43 -46 -31 -18 -8 -3 -1 -0 -2 -8 -9 -10 -9 -5 -19 -56 -46 -0 -1 -0 -0 -2 -1 -5 -15 -44 -57 -54 -31 -2
-203 -188 -189 -159 -100 -79 -100 -99 -109 -98 -88 -61 -56 -44 -32 -28 -13 -6 -3 -1 -3 -4 -3 -2 -2 -6 -7 -15 -55 -84 -46 -6 -0 -1 -0 -1 -1 -2 -1 -18 -54 -91 -77
-227 -231 -224 -200 -182 -117 -78 -90 -97 -107 -95 -73 -56 -47 -32 -30 -27 -14 -22 -28 -26 -19 -12 -12 -13 -5 -2 -164 -155 -156 -63 -11 -1 -1 -0 -1 -0 -1 -2 -1 -0 -1 -1
-226 -223 -241 -239 -238 -199 -134 -108 -89 -78 -90 -83 -61 -54 -55 -36 -22 -20 -27 -26 -15 -12 -16 -9 -3 -0 -24 -310 -325 -250 -39 -12 -10 -13 -15 -9 -7 -14 -103 -40 -14 -12 -2
-289 -222 -201 -203 -180 -185 -192 -114 -79 -67 -73 -83 -77 -62 -55 -47 -54 -42 -42 -36 -29 -18 -1 -1 -3 -10 -146 -467 -0 -0 -214 -129 -0 -0 -0 -0 -0 -0 -0 -0 -0 -246 -158
-0 -239 -224 -162 -164 -197 -204 -163 -69 -43 -38 -34 -69 -71 -53 -34 -34 -37 -36 -25 -12 -4 -5 -1 -25 -72 -118 -0 -0 -0 -0 -0 -0 -0 -0 -0 -0 -0 -0 -0 -0 -0 -0
-0 -0 -73 -161 -141 -174 -165 -161 -124 -74 -41 -26 -40 -67 -78 -62 -48 -26 -16 -14 -7 -3 -32 -65 -131 -296 -0 -0 -0 -0 -0 -0 -0 -0 -0 -0 -0 -0 -0 -0 -0 -0 -0
-0 -0 -0 -24 -136 -121 -110 -114 -106 -115 -140 -93 -20 -24 -49 -75 -78 -77 -45 -29 -42 -74 -118 -181 -270 -420 -0 -0 -0 -0 -0 -0 -0 -0 -0 -0 -0 -0 -0 -0 -0 -0 -0
-0 -0 -0 -0 -36 -138 -105 -85 -91 -104 -92 -75 -25 -13 -26 -61 -64 -70 -74 -165 -203 -202 -239 -262 -308 -0 -0 -0 -0 -0 -0 -0 -0 -0 -0 -0 -0 -0 -1 -0 -1 -1 -1
-0 -0 -0 -0 -0 -102 -156 -110 -106 -89 -87 -49 -13 -59 -154 -150 -221 -212 -124 -194 -209 -286 -323 -358 -94 -0 -0 -0 -0 -0 -0 -0 -0 -0 -0 -0 -0 -0 -0 -0 -0 -3 -1
-0 -0 -0 -0 -0 -0 -223 -150 -116 -84 -75 -60 -18 -45 -107 -236 -326 -378 -502 -0 -0 -0 -0 -0 -0 -0 -0 -0 -0 -0 -0 -0 -0 -0 -0 -0 -0 -0 -0 -0 -0 -0 -0
Wind_Speed
8 9 10 9 7 10 11 12 13 8 4 1 2 4 9 6 5 11 15 23 24 24 23 21 19 18 17 15 14 13 14 15 17 18 18 17 19 19 20 19 17 14 11
3 5 9 11 9 10 12 12 17 11 11 2 6 8 2 2 6 3 10 22 20 19 19 21 20 18 16 15 13 12 14 13 14 12 14 15 16 16 17 17 17 15 13
5 6 11 12 11 10 10 12 15 11 9 8 7 13 12 11 6 3 8 16 23 24 24 20 20 15 17 14 13 14 14 12 11 14 13 10 8 8 12 14 16 16 15
7 11 12 13 13 8 4 7 11 9 8 10 2 3 0 2 2 1 1 13 19 20 25 13 15 14 17 18 15 13 17 11 11 12 10 21 20 18 9 10 10 12 16
15 13 19 11 6 4 6 8 7 7 5 5 6 4 3 6 8 2 1 18 17 21 4 7 9 10 15 11 14 16 15 14 12 11 12 17 23 13 21 18 10 9 12
20 21 21 9 6 5 3 5 7 7 6 5 3 2 3 6 5 3 1 14 18 21 9 6 6 9 8 8 8 12 6 19 19 17 13 18 18 18 15 20 20 20 12
11 22 17 12 11 11 13 11 6 3 3 3 2 4 3 1 3 2 10 2 4 17 3 4 6 10 7 7 7 13 5 11 14 14 15 17 17 15 10 8 20 12 17
14 22 23 21 20 16 13 8 2 3 6 9 6 8 3 5 3 3 8 6 7 7 7 4 4 5 7 6 8 8 20 10 11 12 14 18 9 9 10 17 22 20 10
13 16 21 23 21 19 17 12 8 10 15 11 6 3 6 7 7 7 2 2 7 8 8 7 6 4 6 6 5 7 11 7 9 9 8 9 20 22 22 12 22 19 24
13 14 16 21 21 18 16 13 14 13 18 15 11 4 2 5 7 5 3 3 2 4 9 4 6 7 9 5 6 8 8 8 9 8 11 10 10 12 17 24 15 20 5
18 14 13 18 19 17 12 12 12 13 19 18 10 7 1 5 3 4 4 4 5 7 7 12 12 10 9 10 11 13 14 13 10 9 13 12 13 19 11 12 9 4 3
20 15 13 14 19 16 11 8 9 12 17 12 11 12 8 2 5 3 4 3 3 4 6 8 11 11 6 10 12 16 17 12 8 9 14 9 5 27 28 5 19 21 21
18 16 13 9 11 13 19 14 10 10 15 17 12 15 10 9 8 5 5 3 3 3 2 2 7 3 6 8 8 11 11 8 9 9 13 15 13 10 21 21 17 12 7
17 15 13 10 10 11 16 20 18 15 14 13 14 13 16 14 14 15 10 7 7 10 4 1 1 1 4 5 4 2 2 4 7 6 6 8 8 11 12 12 13 15 19
20 19 16 9 13 11 11 13 14 17 15 13 14 12 11 13 16 14 14 7 9 10 6 6 10 7 2 3 2 2 4 4 6 8 8 9 11 14 15 16 16 17 14
21 21 21 21 9 6 12 12 8 7 7 10 11 7 7 7 7 3 4 5 9 14 14 16 14 15 18 9 4 1 7 4 3 6 7 8 9 9 8 8 9 11 16
22 22 22 22 21 7 2 6 8 3 4 4 6 3 2 1 2 1 1 1 3 7 14 18 20 21 17 8 3 2 2 3 5 7 11 13 12 13 13 13 11 11 11
23 23 23 22 21 19 12 4 3 4 1 1 3 2 1 1 0 1 1 1 1 9 11 13 12 8 1 18 18 17 13 10 11 11 11 11 13 16 18 17 16 16 16
24 24 23 23 22 21 20 18 10 4 2 1 3 2 3 1 1 1 1 1 2 4 5 4 2 5 14 18 19 19 19 21 23 23 24 24 24 23 29 26 24 22 21
25 25 24 24 22 21 21 20 18 14 4 4 4 3 3 4 3 4 4 3 2 0 3 5 7 13 13 15 17 20 23 25 29 28 25 22 20 30 33 33 31 30 30
26 25 25 25 24 23 23 22 22 24 27 21 8 5 5 5 4 4 4 3 3 4 5 8 11 13 16 19 21 21 22 26 28 30 27 26 30 33 32 30 28 28 33
27 28 28 27 27 26 25 25 23 23 24 28 21 10 7 7 7 7 6 5 5 6 6 7 10 13 15 16 19 22 25 26 28 29 28 29 33 33 32 30 27 27 28
30 30 30 31 30 28 26 27 26 24 25 26 25 24 15 12 11 10 9 8 7 7 8 8 9 11 12 15 16 19 23 26 28 27 29 30 31 30 28 24 25 24 23
34 35 35 35 34 32 30 29 28 27 26 26 24 19 18 17 12 13 12 11 11 12 12 10 10 10 11 13 16 19 22 22 26 27 28 30 27 26 25 27 27 22 21
38 37 37 38 38 36 35 32 29 28 27 24 22 21 19 19 17 19 17 15 11 12 11 10 13 10 10 12 15 19 23 25 25 26 27 30 31 32 29 27 26 26 26
39 38 38 39 40 38 37 36 32 29 27 25 22 20 20 21 22 20 19 21 17 11 12 11 16 16 11 10 12 17 20 20 21 20 26 29 30 31 29 24 24 24 24
Wind_Direction
153 153 153 149 149 154 156 158 158 152 143 288 307 308 139 334 95 134 277 251 239 206 211 218 242 211 190 183 161 124 144 195 191 239 188 169 172 161 167 169 166 154 148
165 160 159 159 160 156 159 159 168 158 161 269 291 294 322 19 115 2 294 251 262 262 168 200 211 203 179 160 141 127 162 156 138 121 147 140 142 156 164 168 171 165 159
179 172 160 163 160 159 156 157 164 158 153 158 287 279 291 297 316 343 298 274 251 240 210 189 194 156 188 178 152 157 174 187 127 177 203 253 296 36 124 156 172 170 167
174 174 168 163 163 157 152 146 152 148 149 155 158 164 177 336 51 85 14 278 265 265 231 133 154 150 185 218 179 158 212 94 112 49 97 259 271 243 357 95 124 144 168
174 166 174 167 165 169 152 146 138 133 136 144 156 157 289 311 318 340 254 257 267 263 74 97 108 114 162 131 171 205 192 189 181 63 11 302 246 155 227 214 50 97 157
170 170 168 161 156 161 219 147 141 142 135 145 147 180 154 301 329 323 276 265 265 236 131 88 80 111 93 95 81 250 99 242 250 226 160 198 232 200 165 221 233 275 341
127 163 152 154 150 150 153 151 142 291 153 130 147 154 166 261 342 67 140 141 297 193 86 23 89 136 64 55 40 349 131 141 199 185 171 168 190 322 47 352 242 162 328
120 161 158 157 157 153 152 152 150 255 155 150 148 149 270 299 319 116 138 134 125 118 336 57 50 33 19 53 12 126 212 133 146 156 162 188 104 60 118 211 278 248 142
101 137 152 161 157 158 157 154 146 152 156 151 144 147 281 281 290 290 202 273 293 310 322 346 4 43 17 103 66 84 146 60 45 39 65 356 291 281 284 350 272 309 274
81 129 147 161 162 158 154 147 146 155 163 157 151 141 242 270 280 288 252 213 292 317 323 16 351 353 346 32 111 25 45 31 29 36 357 11 6 346 318 246 322 303 129
62 101 128 149 155 154 141 144 145 139 162 161 143 137 235 272 224 270 272 240 285 302 318 313 320 330 335 342 337 331 338 350 9 19 336 348 339 310 350 201 168 79 82
36 74 99 131 156 155 145 141 132 142 157 144 144 148 145 162 162 219 268 201 217 287 309 318 316 324 355 340 330 321 319 346 7 5 339 359 125 269 260 2 216 310 310
14 58 69 75 119 143 160 150 142 138 154 154 146 154 149 152 162 179 183 205 254 280 166 144 151 109 350 347 354 337 341 357 356 356 336 329 335 340 310 314 323 329 332
359 31 56 69 105 119 147 160 151 141 139 144 153 151 161 163 166 168 164 168 166 163 157 145 46 34 346 351 1 57 31 2 349 350 347 341 338 331 327 324 323 321 315
325 331 326 75 125 123 133 148 150 160 155 152 154 153 149 158 166 162 163 156 162 165 160 158 169 169 159 170 160 167 342 342 340 337 333 328 323 320 317 319 318 316 314
319 312 304 281 128 100 140 142 134 136 144 152 155 144 138 140 144 127 144 148 154 165 169 178 181 186 197 179 161 85 353 357 342 338 336 330 326 318 298 277 275 301 311
320 312 307 295 289 337 53 135 140 121 134 146 143 140 129 330 316 317 255 252 156 151 166 178 188 195 188 344 138 24 331 320 334 331 331 330 327 324 319 314 298 287 277
319 312 308 308 303 303 309 324 133 142 144 163 152 143 143 129 126 268 192 232 213 144 148 157 157 153 25 318 324 331 338 337 335 333 330 323 323 322 320 316 310 306 302
320 314 310 308 308 301 296 295 301 164 200 231 192 184 177 186 259 207 177 144 126 123 132 125 26 352 327 325 327 331 331 330 327 327 325 323 320 319 316 312 307 302 299
310 312 308 306 307 308 302 297 295 291 209 262 188 219 213 185 186 180 174 185 165 219 319 322 327 324 327 329 331 330 327 325 322 324 327 325 321 319 315 312 309 305 303
305 305 305 305 305 305 307 298 297 285 273 280 278 242 239 234 223 206 200 233 256 294 303 316 323 326 325 322 325 332 333 330 330 329 332 331 326 320 317 312 307 304 302
305 302 300 300 302 303 301 300 298 293 282 268 273 266 242 231 237 241 248 251 265 281 299 312 320 326 326 329 329 333 335 336 334 333 333 332 329 327 324 319 312 304 300
301 301 297 295 296 299 301 298 297 295 286 278 273 270 266 253 245 232 236 246 256 269 286 294 309 319 329 328 333 339 340 339 338 340 339 336 334 335 334 329 323 317 307
295 294 292 289 288 290 293 296 295 292 289 281 280 280 272 263 245 242 236 239 244 259 273 283 294 306 319 325 334 338 338 343 343 345 346 345 347 345 344 342 338 330 320
292 292 289 286 283 284 284 288 292 292 289 288 283 279 280 278 272 272 267 258 256 257 254 268 283 291 307 320 333 336 335 337 344 347 352 351 351 351 349 349 349 343 332
291 290 288 285 281 282 280 281 285 287 287 286 283 283 278 277 280 277 278 282 282 278 284 291 288 298 306 327 332 335 335 341 347 354 351 354 358 359 2 3 358 355 345